Regional Weather Roundup
Issued by NWS Midland/Odessa, TX

Skip options and go directly to product.
Home | Oldest Version | Previous Version | Current Version | All | Graphics & Text | Save Text | Print | Product List | Glossary On

Skip product version selection by date and time.   
433
ASUS44 KMAF 281001
RWRMAF
MIDLAND AREA WEATHER ROUNDUP
NATIONAL WEATHER SERVICE MIDLAND TX
500 AM CDT TUE MAR 28 2017

...IN SOUTHWEST TEXAS AND SOUTHEAST NEW MEXICO...

CITY           SKY/WX    TMP DP  RH WIND       PRES   REMARKS
ALPINE         CLEAR     60  41  50 SW6       29.85S
ANDREWS        CLOUDY    57  45  64 SE8       29.74F
ARTESIA        CLOUDY    57  28  33 W10       29.73S
BIG SPRING     PTCLDY    65  59  79 SE16      29.76F
CARLSBAD       PTCLDY    56  29  35 SW3       29.70F
DRYDEN           N/A     68  64  87 E8        29.72F
FORT STOCKTON  CLEAR     64  60  87 S13       29.70F
GUAD PASS      CLEAR     57  25  29 SW14      29.81F
HOBBS          CLOUDY    50  36  57 E5        29.77F
MARFA          CLEAR     45  33  63 VRB7      29.84F
MIDLAND AIRPK  CLOUDY    67  58  72 SE15      29.74F
MIDLAND INTL   CLEAR     64  56  75 SE12      29.73S
ODESSA         CLEAR     62  53  72 SE13      29.73F
PECOS          CLEAR     58  37  46 N3        29.70S
PRESIDIO       FAIR      66  35  31 N7        29.75R
SEMINOLE       PTCLDY    51  41  70 E5        29.77S
SNYDER         CLOUDY    63  58  83 E6        29.77F
WINK           CLEAR     61  50  67 SE12      29.70R
$$
...OTHER STATIONS IN TEXAS...

CITY           SKY/WX    TMP DP  RH WIND       PRES   REMARKS
ABILENE        CLOUDY    63  59  87 SE14      29.80R
AMARILLO       CLEAR     48  44  86 SE12      29.87S
AUSTIN         CLOUDY    71  68  90 E6        29.81F
BROWNSVILLE    CLOUDY    74  72  93 SE13      29.78F
CORPUS CHRISTI MOCLDY    73  71  93 SE16      29.76F
DALLAS FTW     CLOUDY    63  56  78 E8        29.85S
DEL RIO        CLOUDY    71  68  90 SE12      29.71F
EL PASO        MOCLDY    65  28  24 SW10      29.75F
HOUSTON INT    CLOUDY    68  67  96 SE5       29.86S FOG
LUBBOCK        PTCLDY    53  45  74 E12       29.79S
SAN ANGELO     PTCLDY    63  59  87 SE6       29.76F
SAN ANTONIO    CLOUDY    70  67  90 E7        29.81F
WACO           CLOUDY    64  62  93 SE6       29.83S
WICHITA FALLS  NOT AVBL
$$
...OTHER LOCATIONS IN NEW MEXICO...

CITY           SKY/WX    TMP DP  RH WIND       PRES   REMARKS
ALAMAGORDO     MOCLDY    59  37  44 SE9       29.76F
ALBUQUERQUE    CLOUDY    47  37  68 NW10      29.82S
CANNON AFB     CLOUDY    51  43  73 E10       29.79F
CLOVIS         MOCLDY    48  37  66 E9        29.81F
HOLLOMAN AFB   CLOUDY    62  37  38 S3        29.78F
ROSWELL        CLOUDY    60  29  30 E7          N/A
RUIDOSO        CLOUDY    46  36  66 W8        29.90F
SANTA FE       CLOUDY    38  37  97 NE8       29.84F WCI  32
TRUTH OR CONSE CLOUDY    54  32  43 W7        29.77F
TUCUMCARI      MOCLDY    59  39  47 S13       29.79F
$$